SCP
0 0 0 0 0 0 0 0 0 0 0 0 0 0 0 0 0 0 0 0 0 0 0 0 0 0 0 0 0 0 0 0 0 0 0 0 0 0 0 0 0 0 0 0
0 0 0 0 0 0 0 0 0 0 0 0 0 0 0 0 0 0 0 0 0 0 0 0 0 0 0 0 0 0 0 0 0 0 0 0 0 0 0 0 0 0 0 0
0 0 0 0 0 0 0 0 0 0 0 0 0 0 0 0 0 0 0 0 0 0 0 0 0 0 0 0 0 0 0 0 0 0 0 0 0 0 0 0 0 0 0 0
0 0 0 0 0 0 0 0 0 0 0 0 0 0 0 0 0 0 0 0 0 0 0 0 0 0 0 0 0 0 0 0 0 0 0 0 0 0 0 0 0 0 0 0
0 0 0 0 0 0 0 0 0 0 0 0 0 0 -0 0 0 0 0 0 0 0 0 0 0 0 0 0 0 0 0 0 0 0 0 0 0 0 0 0 0 0 0 0
0 0 0 0 0 0 0 0 0 0 0 0 0 0 -0 0 0 0 0 0 0 0 0 0 0 0 0 0 0 0 0 0 0 0 0 0 0 0 0 0 0 0 0 0
0 0 0 0 0 0 0 0 0 0 0 0 0 0 0 0 0 0 0 0 0 0 0 0 0 0 0 0 0 0 0 0 0 0 0 0 0 0 0 0 0 0 0 0
0 0 0 0 0 0 0 0 0 0 0 0 0 0 0 0 0 0 -0 0 0 0 0 0 0 0 0 0 0 0 0 0 0 0 0 0 0 0 0 0 0 0 0 0
0 0 0 0 0 0 0 0 0 0 0 0 0 0 0 0 0 0 0 0 0 0 0 0 0 0 0 0 0 0 0 0 0 0 0 0 0 0 0 0 0 0 0 0
0 0 0 0 0 0 0 0 0 0 0 0 0 0 0 0 0 0 0 0 0 0 0 0 0 0 0 0 0 0 0 0 0 0 0 0 0 0 0 0 0 0 0 0
0 0 0 0 0 0 0 0 0 0 0 0 0 0 0 0 0 0 0 0 0 0 0 0 0 0 0 0 0 0 0 0 0 0 0 0 0 0 0 0 0 0 0 0
0 0 0 0 0 0 0 0 0 0 0 0 0 0 0 0 0 0 0 0 0 0 0 0 0 0 0 0 0 0 0 0 0 0 0 0 0 0 0 0 0 0 0 0
0 0 0 0 0 0 0 0 0 0 0 0 0 0 0 0 0 0 0 0 0 0 0 0 0 0 0 0 0 0 0 0 0 0 0 0 0 0 0 0 0 0 0 0
0 0 0 0 0 0 0 0 0 0 0 0 0 0 0 0 0 0 0 0 0 0 0 0 0 -0 0 0 0 0 0 0 0 0 0 0 0 0 0 0 0 0 0 0
0 0 0 0 0 0 0 0 0 0 0 0 0 0 0 0 0 0 0 -0 -0 -0 0 0 -0 0 -0 0 0 0 0 0 0 0 0 0 0 0 0 0 0 0 0 0
0 0 0 0 0 0 0 0 0 0 0 0 0 0 -0 -0 0 0 0 0 0 0 -0 -0 -0 -0 0 0 0 0 0 0 0 0 0 0 0 0 0 0 0 0 0 0
0 0 0 0 0 0 0 0 0 0 0 0 0 0 0 0 0 0 0 0 0 0 0 0 0 0 0 0 0 0 0 0 0 0 0 0 0 0 0 0 0 0 0 0
0 0 0 0 0 0 0 0 0 0 0 0 0 0 0 0 0 0 0 0 0 0 0 0 0 0 0 0 0 0 0 0 0 0 0 0 0 0 0 0 0 0 0 0
0 0 0 0 0 0 0 0 0 0 0 0 0 0 0 0 0 0 0 0 0 0 0 0 0 0 0 0 0 0 0 0 0 0 0 0 0 0 0 0 0 0 0 0
0 0 0 0 -0 -0 -0 0 0 0 0 0 0 0 0 0 0 0 0 0 0 0 0 0 0 0 0 0 0 0 0 0 0 0 0 0 0 0 0 0 0 0 0 0
0 0 0 0 -0 0 0 0 0 0 0 0 0 0 0 0 0 0 0 0 0 0 0 0 0 0 0 0 0 0 0 0 0 0 0 0 0 0 0 0 0 0 0 0
-0 0 0 0 0 -0 0 0 0 0 0 0 0 0 0 0 0 0 0 0 0 0 0 0 0 0 0 0 0 0 0 0 0 0 0 0 0 0 0 0 0 0 0 0
0 0 0 0 -0 0 0 0 0 0 0 -0 -0 -0 0 -0 -0 -0 0 -0 -0 0 0 0 0 0 0 0 0 0 0 0 0 0 0 0 0 0 0 0 0 0 0 0
0 0 0 0 0 -0 0 -0 -0 -0 0 0 0 0 0 0 0 0 -0 -0 -0 0 0 0 0 0 0 0 0 0 0 0 0 0 0 0 0 0 0 0 0 0 0 0
0 0 0 0 -0 0 0 0 0 -0 -0 -0 -0 -0 -0 -0 0 0 -0 -0 -0 0 0 0 0 0 0 0 0 0 0 0 0 0 0 0 0 0 0 0 0 0 0 0
0 0 0 0 0 0 0 -0 -0 -0 -0 -0 -0 -0 -0 -0 -0 -0 -0 -0 0 0 0 0 0 0 0 0 0 0 0 0 0 0 0 0 0 0 0 0 0 0 0 0
Wind_Speed_500mb
14 7 18 13 9 7 12 9 9 7 2 7 9 10 27 12 15 33 44 48 55 60 59 60 63 61 59 59 58 56 56 52 52 53 53 53 50 44 45 41 38 38 38 36
7 20 12 15 8 6 9 7 7 2 3 5 2 16 22 12 22 39 48 56 58 59 64 63 64 69 70 67 65 64 62 59 57 57 56 53 48 47 42 38 36 36 38 37
12 2 21 15 13 13 7 11 7 5 1 6 6 12 15 15 28 51 61 57 50 61 70 66 64 68 72 76 75 73 69 65 63 63 60 59 59 57 49 42 38 35 38 39
9 11 13 12 13 14 17 15 12 10 6 6 5 15 11 14 14 12 46 61 74 79 73 69 69 71 77 81 78 79 77 75 73 72 71 70 69 64 56 43 39 32 33 34
12 15 16 6 9 13 10 12 16 7 7 7 2 2 12 5 12 15 29 57 67 75 78 85 91 92 83 74 76 78 83 82 83 83 80 80 78 74 64 57 53 47 44 46
12 9 13 18 9 14 18 15 13 8 6 7 14 11 10 10 12 8 12 34 44 55 65 72 78 77 84 81 75 69 70 74 77 81 81 81 78 77 71 67 63 59 59 57
11 7 7 10 12 4 5 14 5 4 1 12 4 10 24 11 11 10 15 26 22 27 32 31 36 43 60 79 82 77 77 71 62 61 68 75 75 72 71 69 67 66 66 64
10 10 15 9 10 14 16 16 11 13 12 7 2 14 11 10 27 36 37 37 45 47 49 48 40 37 41 47 58 66 81 76 68 58 56 59 62 66 68 67 66 65 64 62
8 4 6 8 10 17 11 14 11 11 5 6 8 13 14 8 16 32 30 20 28 25 31 30 30 34 33 34 39 44 51 60 61 58 57 59 60 60 59 57 57 58 58 60
1 5 3 8 6 4 14 14 6 4 9 7 8 7 9 8 13 14 19 29 28 18 21 20 19 27 27 26 25 28 39 51 56 55 52 49 47 47 49 51 53 52 49 46
3 2 2 11 12 17 8 10 5 8 8 9 3 9 11 9 7 7 10 20 23 26 31 28 14 9 12 14 20 25 29 32 33 33 34 37 40 42 43 42 39 37 36 36
5 1 5 5 3 1 2 10 11 11 9 4 4 10 7 8 10 5 12 28 40 43 49 43 24 11 5 4 13 20 25 27 28 30 31 32 34 33 33 33 33 33 33 34
7 4 5 6 8 9 3 5 6 7 5 13 11 11 2 6 4 6 15 19 24 32 38 42 38 27 16 12 11 13 17 20 23 26 29 30 32 32 32 33 34 35 36 37
5 6 4 8 6 1 5 7 3 17 8 15 15 22 10 15 15 28 29 18 21 30 34 37 35 28 28 27 22 18 21 24 28 30 32 32 33 32 32 33 35 36 38 41
6 6 4 0 2 5 3 3 6 6 5 12 9 12 2 13 15 30 40 41 44 47 46 46 49 52 45 42 40 30 26 32 36 37 39 38 36 35 35 37 39 41 43 45
0 3 4 3 5 10 6 12 14 16 7 12 10 29 17 41 49 44 50 51 47 63 74 61 50 56 60 55 47 39 42 45 47 47 51 48 47 46 44 44 46 47 50 53
3 4 5 5 11 7 11 14 16 8 9 12 13 15 5 9 14 23 34 37 39 44 51 60 63 61 58 56 56 56 57 55 56 63 61 58 55 54 52 51 54 56 56 55
5 4 5 5 6 1 13 8 6 11 13 12 16 17 10 11 16 22 18 22 24 31 38 45 51 56 57 57 58 61 59 59 62 64 66 65 66 64 64 64 63 61 59 57
12 5 5 7 5 10 16 11 10 12 15 11 12 8 6 13 11 16 10 17 38 40 40 43 47 54 61 60 58 57 58 58 61 67 68 72 77 76 74 72 69 67 63 61
9 9 6 5 9 13 14 8 5 7 9 4 9 5 9 10 5 8 15 37 44 43 42 48 50 54 54 52 54 62 62 60 60 59 62 67 74 79 81 79 74 69 66 64
5 4 19 8 6 14 22 8 4 9 10 11 9 18 13 7 13 30 38 44 43 45 49 48 51 56 56 59 59 56 55 56 54 59 61 63 67 74 79 79 75 72 71 70
12 10 7 5 9 15 5 11 13 11 11 17 28 37 40 38 34 41 37 48 53 54 52 51 55 58 56 57 61 63 58 54 53 50 54 59 60 64 73 78 77 76 75 74
4 12 8 15 13 14 22 17 22 22 32 41 34 33 28 46 51 49 57 60 55 52 57 57 59 60 58 56 58 64 60 58 53 54 54 53 55 58 67 74 79 79 80 80
9 13 7 5 12 32 52 47 52 45 41 46 25 26 37 52 56 66 69 64 60 59 58 55 58 61 62 58 59 59 61 57 57 53 51 53 54 57 62 71 77 81 85 86
14 13 10 14 20 36 57 40 30 30 21 16 32 39 43 46 54 57 65 67 67 62 56 56 58 61 64 62 60 59 59 59 54 52 51 50 54 58 60 69 76 82 84 83
25 14 10 14 30 22 23 25 25 26 34 42 41 41 38 44 51 56 63 64 63 65 63 61 57 57 58 60 62 60 57 56 54 52 48 50 51 57 62 68 72 76 79 74
Wind_Direction_500mb
190 149 206 190 186 130 140 142 165 228 123 153 219 257 258 231 232 233 224 223 223 225 229 230 229 231 232 232 233 235 236 236 237 238 238 239 242 245 246 249 253 257 255 255
119 225 182 165 182 130 131 141 175 179 79 146 88 261 262 233 239 237 232 228 230 229 232 232 230 231 233 234 235 237 238 237 237 239 241 243 247 249 251 252 254 257 255 253
171 224 173 160 163 176 157 152 155 141 102 67 344 276 255 255 228 244 244 245 239 239 239 237 236 235 237 237 236 237 239 239 238 240 241 242 243 245 245 247 251 263 254 253
207 186 158 162 181 154 207 158 142 129 104 217 34 277 276 261 254 234 241 238 241 240 243 242 240 243 243 243 243 242 241 242 240 241 242 243 245 246 247 252 257 260 253 251
198 156 152 170 187 146 200 166 155 120 100 57 225 293 269 318 276 265 241 246 247 247 245 248 251 251 247 245 245 245 245 244 242 242 243 245 246 247 247 248 250 249 251 251
166 166 169 183 168 155 144 100 63 66 125 245 181 174 209 197 212 256 243 244 250 255 258 256 255 255 249 245 245 246 245 243 242 242 242 243 243 245 244 245 248 249 251 253
183 171 158 133 98 89 149 141 99 94 177 231 325 197 254 255 255 235 269 276 269 277 277 275 266 264 260 249 247 246 242 238 238 239 240 241 241 241 242 245 248 249 250 253
155 166 176 181 169 175 181 165 159 182 195 203 48 230 240 246 286 279 272 268 284 290 286 279 275 280 284 252 243 242 239 238 236 237 236 234 234 236 240 244 247 247 250 253
131 234 135 176 152 144 202 201 145 102 50 72 216 290 291 269 277 295 302 309 301 298 310 299 276 263 276 265 250 248 236 227 225 227 229 231 232 235 240 243 246 250 250 252
83 144 207 181 112 38 179 151 106 47 134 225 256 275 229 278 295 335 337 343 342 354 342 326 287 251 259 260 235 222 213 215 218 220 223 228 232 236 241 244 248 250 250 248
224 128 359 124 208 169 146 175 145 124 155 173 209 260 216 203 11 18 339 16 16 16 16 8 360 300 254 217 208 205 202 204 210 215 222 231 235 237 241 243 244 244 241 239
4 305 137 167 98 77 244 163 180 193 197 213 127 263 205 194 95 74 44 52 56 50 38 28 17 18 10 227 212 215 216 215 219 224 229 235 239 236 240 240 238 238 238 236
307 59 93 23 7 13 101 182 218 122 93 205 168 241 25 179 242 112 65 37 28 17 11 10 20 25 9 341 295 253 238 235 239 241 238 234 240 241 238 237 238 237 235 230
61 65 84 162 123 165 333 1 350 213 197 231 225 251 297 317 317 303 324 337 326 327 334 336 342 347 349 346 330 293 272 263 259 252 248 247 245 244 244 243 242 240 237 234
64 105 91 246 196 113 97 335 349 244 258 218 268 281 288 298 297 310 313 317 318 318 320 326 326 321 313 310 309 293 288 282 272 264 259 256 254 253 253 249 242 239 239 240
95 148 69 223 282 209 230 227 241 254 226 257 259 279 228 255 271 278 285 295 300 307 310 309 308 310 308 314 299 280 299 294 286 283 278 264 257 253 249 248 244 238 236 236
81 121 97 265 332 106 334 231 205 210 203 190 214 250 32 29 320 314 305 300 301 301 301 300 301 302 305 305 306 295 294 287 282 285 275 265 262 257 256 252 248 243 237 235
122 110 79 205 25 51 241 289 228 222 251 228 272 273 298 301 333 319 338 325 336 327 315 307 305 302 300 298 295 292 285 279 277 272 266 260 257 257 253 249 245 241 238 234
208 135 99 135 194 302 304 289 146 171 273 203 223 271 272 314 312 307 335 332 328 325 319 311 310 304 300 300 298 299 294 284 275 270 267 259 252 250 250 248 246 242 236 232
174 216 124 78 144 208 236 228 251 139 286 187 138 259 266 321 341 262 327 326 326 323 322 315 310 303 302 305 300 293 291 291 288 282 277 269 260 255 251 247 244 240 235 233
135 190 215 192 213 279 257 220 64 109 234 155 308 316 307 211 255 295 313 319 323 320 317 318 315 309 308 302 298 298 298 295 297 286 275 268 264 257 252 247 242 238 233 229
167 154 204 142 210 267 216 86 175 216 170 331 332 324 319 310 311 310 309 317 317 314 311 312 310 309 311 305 300 293 291 297 292 288 283 275 266 259 250 243 239 234 231 228
263 195 187 186 210 228 198 222 244 259 291 318 316 315 311 311 312 308 310 316 315 312 310 311 308 305 304 304 300 297 298 294 290 288 282 277 270 261 252 242 236 231 229 227
258 202 217 64 240 245 266 279 285 282 279 296 291 297 304 304 306 306 309 311 312 312 310 310 309 306 303 304 300 298 297 296 295 289 285 279 268 258 248 240 234 232 230 227
209 157 203 255 275 269 267 270 309 306 275 266 296 296 295 296 299 303 306 309 311 311 311 312 310 306 304 301 299 297 298 298 295 292 285 277 268 260 249 241 237 233 233 234
194 209 194 232 237 240 267 296 304 287 288 299 297 297 297 298 299 300 300 302 304 306 309 309 306 302 301 301 301 300 299 298 296 293 286 278 269 260 250 241 234 231 233 232
Wind_Speed_850mb
14 7 18 13 9 7 12 9 9 7 2 7 9 10 27 12 15 33 44 48 55 60 59 60 63 61 59 59 58 56 56 52 52 53 53 53 50 44 45 41 38 38 38 36
7 20 12 15 8 6 9 7 7 2 3 5 2 16 22 12 22 39 48 56 58 59 64 63 64 69 70 67 65 64 62 59 57 57 56 53 48 47 42 38 36 36 38 37
12 2 21 15 13 13 7 11 7 5 1 6 6 12 15 15 28 51 61 57 50 61 70 66 64 68 72 76 75 73 69 65 63 63 60 59 59 57 49 42 38 35 38 39
9 11 13 12 13 14 17 15 12 10 6 6 5 15 11 14 14 12 46 61 74 79 73 69 69 71 77 81 78 79 77 75 73 72 71 70 69 64 56 43 39 32 33 34
12 15 16 6 9 13 10 12 16 7 7 7 2 2 12 5 12 15 29 57 67 75 78 85 91 92 83 74 76 78 83 82 83 83 80 80 78 74 64 57 53 47 44 46
12 9 13 18 9 14 18 15 13 8 6 7 14 11 10 10 12 8 12 34 44 55 65 72 78 77 84 81 75 69 70 74 77 81 81 81 78 77 71 67 63 59 59 57
11 7 7 10 12 4 5 14 5 4 1 12 4 10 24 11 11 10 15 26 22 27 32 31 36 43 60 79 82 77 77 71 62 61 68 75 75 72 71 69 67 66 66 64
10 10 15 9 10 14 16 16 11 13 12 7 2 14 11 10 27 36 37 37 45 47 49 48 40 37 41 47 58 66 81 76 68 58 56 59 62 66 68 67 66 65 64 62
8 4 6 8 10 17 11 14 11 11 5 6 8 13 14 8 16 32 30 20 28 25 31 30 30 34 33 34 39 44 51 60 61 58 57 59 60 60 59 57 57 58 58 60
1 5 3 8 6 4 14 14 6 4 9 7 8 7 9 8 13 14 19 29 28 18 21 20 19 27 27 26 25 28 39 51 56 55 52 49 47 47 49 51 53 52 49 46
3 2 2 11 12 17 8 10 5 8 8 9 3 9 11 9 7 7 10 20 23 26 31 28 14 9 12 14 20 25 29 32 33 33 34 37 40 42 43 42 39 37 36 36
5 1 5 5 3 1 2 10 11 11 9 4 4 10 7 8 10 5 12 28 40 43 49 43 24 11 5 4 13 20 25 27 28 30 31 32 34 33 33 33 33 33 33 34
7 4 5 6 8 9 3 5 6 7 5 13 11 11 2 6 4 6 15 19 24 32 38 42 38 27 16 12 11 13 17 20 23 26 29 30 32 32 32 33 34 35 36 37
5 6 4 8 6 1 5 7 3 17 8 15 15 22 10 15 15 28 29 18 21 30 34 37 35 28 28 27 22 18 21 24 28 30 32 32 33 32 32 33 35 36 38 41
6 6 4 0 2 5 3 3 6 6 5 12 9 12 2 13 15 30 40 41 44 47 46 46 49 52 45 42 40 30 26 32 36 37 39 38 36 35 35 37 39 41 43 45
0 3 4 3 5 10 6 12 14 16 7 12 10 29 17 41 49 44 50 51 47 63 74 61 50 56 60 55 47 39 42 45 47 47 51 48 47 46 44 44 46 47 50 53
3 4 5 5 11 7 11 14 16 8 9 12 13 15 5 9 14 23 34 37 39 44 51 60 63 61 58 56 56 56 57 55 56 63 61 58 55 54 52 51 54 56 56 55
5 4 5 5 6 1 13 8 6 11 13 12 16 17 10 11 16 22 18 22 24 31 38 45 51 56 57 57 58 61 59 59 62 64 66 65 66 64 64 64 63 61 59 57
12 5 5 7 5 10 16 11 10 12 15 11 12 8 6 13 11 16 10 17 38 40 40 43 47 54 61 60 58 57 58 58 61 67 68 72 77 76 74 72 69 67 63 61
9 9 6 5 9 13 14 8 5 7 9 4 9 5 9 10 5 8 15 37 44 43 42 48 50 54 54 52 54 62 62 60 60 59 62 67 74 79 81 79 74 69 66 64
5 4 19 8 6 14 22 8 4 9 10 11 9 18 13 7 13 30 38 44 43 45 49 48 51 56 56 59 59 56 55 56 54 59 61 63 67 74 79 79 75 72 71 70
12 10 7 5 9 15 5 11 13 11 11 17 28 37 40 38 34 41 37 48 53 54 52 51 55 58 56 57 61 63 58 54 53 50 54 59 60 64 73 78 77 76 75 74
4 12 8 15 13 14 22 17 22 22 32 41 34 33 28 46 51 49 57 60 55 52 57 57 59 60 58 56 58 64 60 58 53 54 54 53 55 58 67 74 79 79 80 80
9 13 7 5 12 32 52 47 52 45 41 46 25 26 37 52 56 66 69 64 60 59 58 55 58 61 62 58 59 59 61 57 57 53 51 53 54 57 62 71 77 81 85 86
14 13 10 14 20 36 57 40 30 30 21 16 32 39 43 46 54 57 65 67 67 62 56 56 58 61 64 62 60 59 59 59 54 52 51 50 54 58 60 69 76 82 84 83
25 14 10 14 30 22 23 25 25 26 34 42 41 41 38 44 51 56 63 64 63 65 63 61 57 57 58 60 62 60 57 56 54 52 48 50 51 57 62 68 72 76 79 74
Wind_Direction_850mb
190 149 206 190 186 130 140 142 165 228 123 153 219 257 258 231 232 233 224 223 223 225 229 230 229 231 232 232 233 235 236 236 237 238 238 239 242 245 246 249 253 257 255 255
119 225 182 165 182 130 131 141 175 179 79 146 88 261 262 233 239 237 232 228 230 229 232 232 230 231 233 234 235 237 238 237 237 239 241 243 247 249 251 252 254 257 255 253
171 224 173 160 163 176 157 152 155 141 102 67 344 276 255 255 228 244 244 245 239 239 239 237 236 235 237 237 236 237 239 239 238 240 241 242 243 245 245 247 251 263 254 253
207 186 158 162 181 154 207 158 142 129 104 217 34 277 276 261 254 234 241 238 241 240 243 242 240 243 243 243 243 242 241 242 240 241 242 243 245 246 247 252 257 260 253 251
198 156 152 170 187 146 200 166 155 120 100 57 225 293 269 318 276 265 241 246 247 247 245 248 251 251 247 245 245 245 245 244 242 242 243 245 246 247 247 248 250 249 251 251
166 166 169 183 168 155 144 100 63 66 125 245 181 174 209 197 212 256 243 244 250 255 258 256 255 255 249 245 245 246 245 243 242 242 242 243 243 245 244 245 248 249 251 253
183 171 158 133 98 89 149 141 99 94 177 231 325 197 254 255 255 235 269 276 269 277 277 275 266 264 260 249 247 246 242 238 238 239 240 241 241 241 242 245 248 249 250 253
155 166 176 181 169 175 181 165 159 182 195 203 48 230 240 246 286 279 272 268 284 290 286 279 275 280 284 252 243 242 239 238 236 237 236 234 234 236 240 244 247 247 250 253
131 234 135 176 152 144 202 201 145 102 50 72 216 290 291 269 277 295 302 309 301 298 310 299 276 263 276 265 250 248 236 227 225 227 229 231 232 235 240 243 246 250 250 252
83 144 207 181 112 38 179 151 106 47 134 225 256 275 229 278 295 335 337 343 342 354 342 326 287 251 259 260 235 222 213 215 218 220 223 228 232 236 241 244 248 250 250 248
224 128 359 124 208 169 146 175 145 124 155 173 209 260 216 203 11 18 339 16 16 16 16 8 360 300 254 217 208 205 202 204 210 215 222 231 235 237 241 243 244 244 241 239
4 305 137 167 98 77 244 163 180 193 197 213 127 263 205 194 95 74 44 52 56 50 38 28 17 18 10 227 212 215 216 215 219 224 229 235 239 236 240 240 238 238 238 236
307 59 93 23 7 13 101 182 218 122 93 205 168 241 25 179 242 112 65 37 28 17 11 10 20 25 9 341 295 253 238 235 239 241 238 234 240 241 238 237 238 237 235 230
61 65 84 162 123 165 333 1 350 213 197 231 225 251 297 317 317 303 324 337 326 327 334 336 342 347 349 346 330 293 272 263 259 252 248 247 245 244 244 243 242 240 237 234
64 105 91 246 196 113 97 335 349 244 258 218 268 281 288 298 297 310 313 317 318 318 320 326 326 321 313 310 309 293 288 282 272 264 259 256 254 253 253 249 242 239 239 240
95 148 69 223 282 209 230 227 241 254 226 257 259 279 228 255 271 278 285 295 300 307 310 309 308 310 308 314 299 280 299 294 286 283 278 264 257 253 249 248 244 238 236 236
81 121 97 265 332 106 334 231 205 210 203 190 214 250 32 29 320 314 305 300 301 301 301 300 301 302 305 305 306 295 294 287 282 285 275 265 262 257 256 252 248 243 237 235
122 110 79 205 25 51 241 289 228 222 251 228 272 273 298 301 333 319 338 325 336 327 315 307 305 302 300 298 295 292 285 279 277 272 266 260 257 257 253 249 245 241 238 234
208 135 99 135 194 302 304 289 146 171 273 203 223 271 272 314 312 307 335 332 328 325 319 311 310 304 300 300 298 299 294 284 275 270 267 259 252 250 250 248 246 242 236 232
174 216 124 78 144 208 236 228 251 139 286 187 138 259 266 321 341 262 327 326 326 323 322 315 310 303 302 305 300 293 291 291 288 282 277 269 260 255 251 247 244 240 235 233
135 190 215 192 213 279 257 220 64 109 234 155 308 316 307 211 255 295 313 319 323 320 317 318 315 309 308 302 298 298 298 295 297 286 275 268 264 257 252 247 242 238 233 229
167 154 204 142 210 267 216 86 175 216 170 331 332 324 319 310 311 310 309 317 317 314 311 312 310 309 311 305 300 293 291 297 292 288 283 275 266 259 250 243 239 234 231 228
263 195 187 186 210 228 198 222 244 259 291 318 316 315 311 311 312 308 310 316 315 312 310 311 308 305 304 304 300 297 298 294 290 288 282 277 270 261 252 242 236 231 229 227
258 202 217 64 240 245 266 279 285 282 279 296 291 297 304 304 306 306 309 311 312 312 310 310 309 306 303 304 300 298 297 296 295 289 285 279 268 258 248 240 234 232 230 227
209 157 203 255 275 269 267 270 309 306 275 266 296 296 295 296 299 303 306 309 311 311 311 312 310 306 304 301 299 297 298 298 295 292 285 277 268 260 249 241 237 233 233 234
194 209 194 232 237 240 267 296 304 287 288 299 297 297 297 298 299 300 300 302 304 306 309 309 306 302 301 301 301 300 299 298 296 293 286 278 269 260 250 241 234 231 233 232